Wind_Speed
18 20 20 20 21 22 23 24 25 25 26 27 28 29 31 31 32 33 34 35 36 36 37 37 36 35 35 35 35 34 34 34 34 34 34 33 33 34
19 20 20 20 20 21 23 24 25 26 27 28 28 29 30 31 32 32 33 34 35 36 37 37 37 36 35 36 37 36 35 34 34 34 34 35 35 36
19 19 20 20 21 22 22 23 24 25 26 28 29 30 30 31 32 33 34 35 36 37 37 37 37 37 37 37 38 37 36 36 36 36 35 35 36 36
19 19 19 20 20 21 22 23 24 24 25 25 28 29 30 32 33 33 34 35 36 37 38 38 38 38 38 38 38 38 37 37 37 38 37 36 36 36
19 19 19 20 21 22 23 23 24 24 25 25 26 27 29 31 32 33 33 34 35 37 38 38 39 39 39 38 39 38 38 38 38 38 37 37 37 37
19 19 20 21 21 22 22 23 23 24 24 24 25 26 28 29 31 32 33 34 34 36 37 37 37 38 38 39 39 39 39 39 39 39 39 39 38 38
20 20 21 21 22 22 22 22 22 23 24 25 26 26 27 28 29 31 32 33 33 34 35 36 36 37 38 38 39 39 39 40 40 40 39 39 39 39
20 21 21 22 22 21 21 21 22 23 24 25 26 27 27 28 29 29 30 31 32 32 34 35 36 36 37 39 39 39 40 40 40 40 39 40 40 40
20 21 21 22 21 21 21 22 23 24 24 25 26 27 27 27 27 29 30 31 31 32 33 33 34 35 36 36 37 38 38 39 40 40 41 41 41 41
21 21 21 21 21 21 22 22 23 23 24 25 25 25 25 25 26 28 29 30 31 32 33 33 34 34 35 35 36 36 37 38 39 40 41 41 42 42
21 21 21 21 21 22 22 22 23 23 23 23 23 24 24 25 26 27 28 30 31 31 32 33 33 33 33 34 36 36 36 37 37 38 39 40 41 41
20 20 20 21 21 22 22 22 22 22 23 23 23 23 23 24 25 25 26 27 27 27 28 30 31 32 32 33 34 35 35 36 36 37 37 37 38 39
21 21 21 21 21 21 21 21 21 21 21 22 21 21 22 22 21 22 23 24 25 25 26 26 28 30 30 31 32 33 33 33 34 35 36 36 37 37
22 22 22 22 21 21 21 21 21 21 20 20 20 21 21 20 20 20 21 22 23 23 24 24 24 26 27 28 29 30 31 31 32 33 34 35 35 36
23 23 23 23 22 22 22 22 22 22 21 21 21 21 20 20 19 19 20 20 21 22 23 24 23 24 26 28 28 29 29 30 30 31 32 34 34 35
24 24 24 23 23 23 23 22 23 23 22 22 22 21 20 19 19 19 19 20 20 21 22 23 24 25 25 26 27 27 28 29 30 31 32 32 33 33
23 23 23 23 23 23 23 22 22 22 21 21 21 20 19 18 18 18 18 19 20 20 21 22 23 24 24 25 26 26 26 26 27 28 29 30 31 32
23 22 22 22 22 21 21 20 20 20 20 19 18 17 17 17 16 16 16 17 17 18 19 19 21 21 22 23 24 24 24 24 24 25 26 27 28 29
22 21 21 21 20 19 19 19 19 19 19 18 17 17 16 16 16 16 17 16 16 16 17 18 18 19 20 20 21 22 23 23 23 24 25 26 27 28
21 21 21 21 20 19 18 18 18 18 18 18 17 17 16 16 16 16 17 17 17 16 16 17 18 19 19 19 21 22 23 23 24 24 25 26 27 27
20 20 20 21 20 19 18 18 18 18 17 17 17 17 16 16 17 17 17 17 17 17 17 17 18 18 18 19 20 21 22 22 22 23 24 25 25 26
20 20 20 20 19 18 17 17 17 17 17 16 16 16 16 16 16 16 16 16 17 17 17 17 17 17 16 17 18 18 19 20 21 21 22 23 24 25
20 19 19 19 18 18 17 16 16 16 17 16 16 17 17 16 16 16 15 15 15 15 15 16 16 16 16 16 16 17 18 19 20 20 21 21 22 23
Wind_Direction
283 280 278 277 275 272 270 268 266 264 263 263 262 260 258 256 255 252 251 249 248 248 248 247 247 248 249 248 248 249 248 247 247 248 248 248 247 246
289 286 282 279 276 275 274 272 269 267 265 264 264 260 259 256 254 254 252 251 250 250 249 248 248 248 249 249 248 249 248 248 249 249 249 249 249 247
289 289 285 282 282 280 279 276 273 271 270 267 265 263 260 257 255 255 253 254 252 249 249 248 248 248 248 249 249 248 248 248 249 249 250 250 249 248
290 288 286 284 282 281 281 278 277 275 274 270 268 265 262 259 257 256 256 256 253 250 249 249 248 248 248 249 249 248 249 249 249 249 249 250 250 248
292 290 289 287 285 284 283 281 282 280 279 276 271 267 264 262 259 258 258 256 253 251 250 249 249 249 248 248 248 247 248 249 250 251 250 249 250 249
295 293 292 290 288 286 284 283 283 281 280 277 274 270 267 264 261 258 257 256 255 253 251 250 250 250 249 248 248 248 249 250 251 250 251 249 249 249
297 296 296 294 291 288 286 286 286 284 282 279 276 273 269 265 261 260 260 259 257 255 252 251 250 250 249 248 249 249 249 249 250 250 250 250 248 249
299 298 298 297 294 290 287 287 287 286 283 281 278 275 272 267 264 263 262 261 259 257 253 251 251 251 251 250 249 249 248 248 250 250 250 251 250 249
303 302 300 300 297 293 291 289 289 288 286 284 280 276 273 270 267 264 262 261 259 258 255 253 251 251 249 249 248 249 249 249 250 251 251 252 251 249
305 304 304 303 300 296 293 293 293 292 290 288 283 280 276 273 268 265 262 261 261 259 257 255 253 253 252 250 248 248 249 249 249 250 250 251 251 249
308 306 305 303 301 299 297 296 295 293 292 291 286 281 277 274 271 268 265 264 262 259 258 256 254 253 252 250 249 249 249 249 249 250 251 250 251 249
309 307 305 304 303 301 299 298 296 295 294 292 287 284 280 277 274 271 268 265 263 260 257 256 253 250 249 250 250 250 250 251 252 252 251 251 251 250
308 307 306 305 305 304 303 301 300 299 298 296 291 289 287 283 278 273 269 266 264 262 258 256 253 250 250 250 251 250 249 251 252 252 251 252 252 250
306 305 304 305 304 302 303 303 303 303 301 298 294 292 289 285 279 275 271 267 264 262 260 259 256 251 251 251 251 250 249 251 251 251 251 251 250 248
306 304 303 302 300 300 300 300 300 301 301 299 296 294 290 287 283 278 274 271 268 265 263 261 258 255 254 253 252 248 249 251 252 252 251 251 249 247
305 304 302 299 298 299 300 301 301 302 301 300 297 294 292 289 285 281 278 274 271 268 266 263 261 258 256 254 254 253 252 253 254 253 252 251 249 248
307 306 304 303 302 301 300 299 301 302 301 301 299 295 291 287 285 282 278 275 273 271 267 265 263 261 257 256 257 256 255 255 255 254 251 249 249 249
307 306 305 305 305 302 302 301 300 301 303 303 301 299 296 291 286 283 281 279 276 271 267 266 264 262 259 258 259 256 256 256 256 254 249 249 249 250
310 308 308 308 307 305 304 304 303 302 302 302 302 301 298 295 290 285 281 280 278 271 267 268 267 265 262 259 257 256 254 254 255 254 250 249 249 249
312 311 311 309 307 306 304 303 304 305 304 302 299 297 295 293 291 288 284 280 277 273 271 270 269 268 265 262 259 256 254 253 254 253 250 250 251 251
314 314 314 314 309 306 304 303 303 304 304 303 301 298 295 291 289 287 286 282 277 273 270 269 268 266 265 264 260 257 254 253 256 256 253 251 252 253
319 318 317 316 313 310 307 305 305 306 305 304 304 303 300 295 290 288 286 283 278 274 272 269 267 267 266 265 262 258 253 251 254 257 256 255 256 256
323 321 320 319 316 312 310 307 305 304 303 303 305 305 303 299 293 289 287 285 280 274 271 269 269 268 267 265 264 261 258 256 254 255 256 256 256 257
Height
5755 5753 5752 5752 5751 5750 5750 5749 5749 5748 5749 5748 5748 5749 5750 5751 5752 5753 5756 5758 5761 5763 5766 5769 5772 5774 5777 5780 5782 5784 5786 5788 5791 5793 5796 5798 5800 5802
5749 5748 5747 5746 5745 5744 5743 5742 5742 5741 5741 5740 5740 5740 5741 5742 5743 5745 5746 5749 5751 5754 5757 5759 5762 5765 5768 5771 5773 5775 5777 5779 5781 5784 5786 5789 5791 5793
5744 5743 5741 5740 5739 5738 5737 5735 5734 5734 5733 5733 5731 5731 5732 5733 5734 5736 5737 5739 5741 5744 5747 5750 5752 5755 5758 5760 5763 5765 5768 5770 5772 5775 5777 5779 5782 5784
5739 5737 5736 5734 5733 5732 5730 5729 5727 5726 5725 5724 5723 5723 5723 5724 5725 5727 5728 5729 5732 5734 5737 5739 5742 5745 5747 5750 5753 5755 5758 5760 5763 5765 5767 5770 5772 5775
5734 5732 5730 5728 5727 5725 5723 5722 5720 5718 5717 5716 5715 5714 5714 5715 5716 5718 5719 5720 5721 5724 5726 5729 5731 5734 5737 5740 5742 5745 5748 5750 5753 5755 5757 5760 5762 5765
5728 5726 5724 5722 5721 5719 5717 5715 5713 5711 5710 5708 5707 5706 5706 5706 5707 5708 5709 5710 5711 5713 5715 5718 5720 5723 5726 5729 5732 5734 5737 5739 5742 5744 5747 5750 5752 5755
5723 5721 5718 5716 5714 5712 5710 5708 5706 5704 5702 5700 5699 5698 5698 5697 5698 5698 5699 5700 5701 5703 5705 5707 5710 5712 5714 5717 5720 5723 5726 5728 5731 5733 5736 5739 5741 5744
5717 5715 5712 5710 5708 5705 5703 5701 5699 5697 5695 5693 5691 5690 5689 5689 5689 5689 5689 5691 5692 5694 5695 5697 5699 5701 5704 5706 5709 5712 5715 5717 5720 5722 5725 5728 5730 5733
5712 5709 5707 5704 5701 5699 5697 5695 5693 5690 5688 5685 5683 5682 5681 5680 5680 5680 5680 5681 5682 5683 5684 5686 5688 5690 5693 5695 5698 5701 5703 5706 5708 5711 5714 5716 5719 5722
5707 5704 5701 5698 5695 5693 5691 5689 5686 5683 5681 5678 5676 5674 5673 5672 5672 5671 5671 5671 5672 5673 5674 5676 5678 5679 5682 5684 5687 5689 5692 5695 5697 5699 5702 5704 5707 5710
5702 5699 5696 5693 5690 5687 5685 5682 5679 5677 5674 5671 5668 5667 5665 5664 5664 5663 5663 5663 5663 5664 5665 5666 5668 5669 5671 5673 5676 5678 5680 5683 5685 5688 5690 5692 5694 5697
5697 5694 5691 5688 5685 5681 5679 5676 5673 5670 5667 5665 5662 5660 5658 5656 5655 5655 5654 5654 5654 5655 5656 5656 5658 5660 5662 5664 5665 5667 5670 5672 5675 5677 5679 5681 5683 5684
5692 5689 5686 5682 5679 5676 5673 5670 5667 5664 5661 5658 5656 5654 5651 5650 5648 5647 5647 5646 5647 5647 5647 5648 5649 5651 5652 5654 5656 5658 5660 5662 5664 5666 5668 5670 5672 5674
5686 5683 5680 5677 5673 5670 5667 5665 5662 5658 5655 5652 5650 5647 5645 5644 5642 5641 5640 5640 5640 5640 5640 5640 5641 5642 5644 5645 5647 5649 5650 5652 5654 5656 5658 5659 5661 5663
5679 5676 5673 5670 5667 5665 5662 5659 5656 5652 5649 5647 5644 5642 5640 5638 5636 5635 5634 5633 5633 5633 5633 5633 5634 5634 5635 5637 5638 5640 5642 5643 5645 5646 5648 5649 5651 5653
5673 5670 5667 5664 5661 5658 5655 5652 5649 5646 5643 5641 5638 5635 5633 5631 5630 5628 5627 5627 5627 5627 5626 5626 5627 5627 5628 5629 5630 5631 5633 5634 5636 5637 5638 5639 5641 5643
5666 5663 5660 5657 5654 5651 5648 5646 5643 5640 5637 5634 5632 5629 5627 5625 5624 5622 5621 5621 5620 5620 5620 5620 5620 5620 5620 5621 5622 5623 5624 5626 5626 5627 5629 5630 5632 5634
5660 5657 5654 5651 5648 5645 5642 5639 5637 5634 5632 5629 5626 5624 5622 5620 5618 5617 5616 5615 5614 5614 5614 5613 5613 5613 5613 5614 5615 5616 5617 5618 5619 5619 5620 5622 5625 5627
5654 5651 5648 5645 5642 5639 5636 5634 5631 5629 5626 5624 5621 5619 5617 5615 5613 5612 5611 5610 5609 5608 5608 5608 5607 5607 5607 5607 5608 5608 5609 5611 5612 5612 5613 5615 5617 5619
5648 5645 5642 5639 5636 5633 5631 5628 5626 5624 5621 5618 5616 5614 5612 5610 5609 5607 5606 5604 5604 5603 5602 5602 5601 5601 5601 5601 5601 5602 5602 5603 5604 5605 5606 5607 5608 5610
5643 5640 5637 5634 5631 5628 5625 5623 5621 5618 5616 5613 5611 5609 5607 5605 5603 5602 5600 5599 5598 5597 5597 5596 5595 5595 5594 5594 5594 5594 5595 5596 5597 5598 5599 5600 5601 5602
5638 5635 5632 5628 5625 5622 5620 5618 5616 5613 5611 5608 5606 5603 5601 5599 5598 5596 5595 5593 5592 5591 5591 5590 5589 5589 5588 5588 5588 5588 5589 5589 5590 5590 5591 5593 5593 5594
5633 5630 5626 5623 5620 5617 5615 5612 5610 5608 5606 5603 5601 5598 5596 5594 5592 5590 5589 5587 5586 5586 5585 5584 5584 5583 5583 5582 5582 5582 5583 5583 5584 5584 5585 5586 5586 5587